CW9688 Weather Reports


time (UTC)temp
C
wind
direction
speed
KPH
gust
KPH
rain 1hr
cm
rain 24hr
cm
rain mn
cm
humidity
%
barometer
mb
20260508212804 21 344 8.0 16.1 0.00 0.03 0.00 37 1008.9
20260508211304 21 8 6.4 12.9 0.00 0.03 0.00 38 1008.9
20260508210804 20 346 8.0 14.5 0.00 0.03 0.00 37 1008.9
20260508204804 20 0 6.4 16.1 0.00 0.03 0.00 37 1008.9
20260508204304 20 4 8.0 12.9 0.00 0.03 0.00 40 1008.9
20260508202805 20 2 4.8 14.5 0.00 0.03 0.00 39 1009.2
20260508202307 19 48 9.7 19.3 0.00 0.03 0.00 39 1009.2
20260508201804 20 29 3.2 14.5 0.00 0.03 0.00 39 1009.2
20260508201304 19 342 9.7 14.5 0.00 0.03 0.00 39 1009.2
20260508195306 18 42 8.0 11.3 0.00 0.03 0.00 39 1009.2
20260508194303 19 35 8.0 14.5 0.00 0.03 0.00 39 1009.2
20260508193304 19 329 8.0 16.1 0.00 0.03 0.00 41 1009.2
20260508192306 18 156 4.8 11.3 0.00 0.03 0.00 42 1009.2
20260508190804 18 0 12.9 19.3 0.00 0.03 0.00 45 1009.2
20260508184804 18 52 9.7 16.1 0.00 0.03 0.00 44 1009.2
20260508183804 17 0 9.7 19.3 0.00 0.03 0.00 47 1009.2
20260508183304 16 38 4.8 19.3 0.00 0.03 0.00 47 1009.2
20260508182804 17 34 8.0 19.3 0.00 0.03 0.00 44 1009.2
20260508182306 17 32 12.9 19.3 0.00 0.03 0.00 46 1009.2
20260508181304 16 52 11.3 16.1 0.00 0.03 0.00 46 1009.2
20260508180304 17 298 9.7 19.3 0.00 0.03 0.00 48 1009.2
20260508175804 16 6 9.7 19.3 0.00 0.03 0.00 46 1009.2
20260508175306 16 13 9.7 16.1 0.00 0.03 0.00 48 1009.2
20260508174804 16 5 14.5 20.9 0.00 0.03 0.00 47 1009.2
20260508172804 16 7 9.7 19.3 0.00 0.03 0.00 50 1009.2
20260508171804 15 12 16.1 22.5 0.00 0.03 0.00 49 1009.2
20260508164804 15 14 8.0 19.3 0.00 0.03 0.00 51 1009.2
20260508163804 15 67 9.7 19.3 0.00 0.03 0.00 51 1009.2
20260508162306 15 97 6.4 14.5 0.00 0.03 0.00 51 1009.2
20260508161804 15 86 8.0 19.3 0.00 0.03 0.00 51 1009.2
20260508155804 13 58 8.0 14.5 0.00 0.03 0.00 56 1009.2
20260508154305 13 194 4.8 11.3 0.00 0.03 0.00 55 1009.2
20260508153804 13 152 4.8 11.3 0.00 0.03 0.00 57 1009.2
20260508153304 13 173 1.6 8.0 0.00 0.03 0.00 59 1009.2
20260508152306 12 157 3.2 8.0 0.00 0.03 0.00 62 1009.2
20260508151304 13 177 8.0 11.3 0.00 0.03 0.00 63 1009.2
20260508144804 12 211 6.4 11.3 0.00 0.03 0.00 66 1009.2
20260508144304 11 195 6.4 9.7 0.00 0.03 0.00 69 1009.2
20260508143804 11 179 8.0 11.3 0.00 0.03 0.00 72 1009.2
20260508143304 11 195 8.0 9.7 0.00 0.03 0.00 72 1009.2
20260508142804 10 172 8.0 14.5 0.00 0.03 0.00 74 1009.2
20260508141804 10 191 8.0 16.1 0.00 0.03 0.00 77 1009.2
20260508141304 10 185 4.8 14.5 0.00 0.03 0.00 79 1009.2
20260508140804 10 207 4.8 11.3 0.00 0.03 0.00 80 1009.2
20260508140304 10 203 8.0 16.1 0.00 0.03 0.00 80 1009.2
20260508135804 9 209 8.0 12.9 0.00 0.03 0.00 84 1009.2
20260508135306 8 190 4.8 11.3 0.00 0.03 0.00 84 1009.2
20260508134304 8 219 3.2 8.0 0.00 0.03 0.00 85 1009.2
20260508132306 7 184 0.0 1.6 0.00 0.03 0.00 86 1009.2
20260508131804 7 184 1.6 4.8 0.00 0.03 0.00 87 1009.2
20260508125804 7 183 3.2 4.8 0.00 0.03 0.00 88 1009.2
20260508124304 7 295 1.6 4.8 0.00 0.03 0.00 90 1009.2
20260508123804 7 0 3.2 4.8 0.00 0.03 0.00 90 1009.2
20260508121804 7 282 6.4 9.7 0.00 0.03 0.00 91 1009.2
20260508121304 6 340 4.8 8.0 0.00 0.03 0.00 93 1009.2
20260508120304 6 43 0.0 3.2 0.00 0.03 0.00 93 1009.2
20260508115306 6 43 0.0 1.6 0.00 0.03 0.00 93 1009.2
20260508114804 6 43 0.0 3.2 0.00 0.03 0.00 93 1009.2
20260508114304 5 43 0.0 3.2 0.00 0.03 0.00 93 1009.2
20260508112307 5 43 1.6 3.2 0.00 0.03 0.00 93 1009.2
20260508104803 6 43 0.0 1.6 0.00 0.03 0.00 92 1009.2
20260508103804 6 43 1.6 3.2 0.00 0.03 0.00 92 1009.2
20260508103303 6 44 0.0 0.0 0.00 0.03 0.00 91 1009.2
20260508102804 6 43 0.0 4.8 0.00 0.03 0.00 92 1009.2
20260508101304 6 0 0.0 4.8 0.00 0.03 0.00 92 1009.2
20260508095804 6 201 1.6 3.2 0.00 0.03 0.00 92 1009.2
20260508093304 6 201 0.0 4.8 0.00 0.03 0.00 92 1009.2
20260508092312 6 50 0.0 3.2 0.00 0.03 0.00 92 1009.2
20260508091804 6 50 1.6 3.2 0.00 0.03 0.00 91 1009.2
20260508090804 6 50 1.6 3.2 0.00 0.03 0.00 91 1009.2
20260508090304 6 50 0.0 0.0 0.00 0.03 0.00 91 1009.2
20260508085306 7 50 0.0 0.0 0.00 0.03 0.00 90 1009.2
20260508084304 7 50 0.0 1.6 0.00 0.03 0.00 90 1009.2
20260508083803 7 50 1.6 3.2 0.00 0.03 0.00 90 1009.2
20260508083304 7 50 0.0 4.8 0.00 0.03 0.00 90 1009.2
20260508082804 7 1 1.6 4.8 0.00 0.03 0.00 90 1009.2
20260508075803 7 315 4.8 8.0 0.00 0.03 0.00 90 1009.2
20260508074804 7 152 1.6 3.2 0.00 0.03 0.00 90 1009.2
20260508074304 7 152 1.6 3.2 0.00 0.03 0.00 90 1009.2
20260508072804 7 152 0.0 3.2 0.00 0.03 0.00 89 1009.2
20260508071304 8 152 0.0 3.2 0.00 0.03 0.00 86 1009.2
20260508070804 8 152 0.0 3.2 0.00 0.03 0.00 86 1009.2
20260508065306 8 152 4.8 4.8 0.00 0.03 0.00 85 1009.2
20260508064804 9 33 1.6 4.8 0.00 0.03 0.00 84 1009.2
20260508064304 9 33 0.0 3.2 0.00 0.03 0.00 83 1009.2
20260508063304 10 33 0.0 3.2 0.00 0.03 0.00 80 1009.2
20260508062803 10 31 3.2 8.0 0.00 0.03 0.00 79 1009.2
20260508062306 10 56 6.4 9.7 0.00 0.03 0.00 80 1009.2
20260508055306 12 306 9.7 20.9 0.00 0.00 0.00 64 1009.2
20260508053304 12 55 3.2 9.7 0.00 0.00 0.00 61 1009.2
20260508050804 12 53 3.2 9.7 0.00 0.00 0.00 59 1009.2
20260508044804 12 98 6.4 11.3 0.00 0.00 0.00 57 1009.2
20260508044304 13 84 6.4 14.5 0.00 0.00 0.00 58 1009.2
20260508043304 12 61 4.8 8.0 0.00 0.00 0.00 59 1009.2
20260508041304 13 1 6.4 9.7 0.00 0.00 0.00 57 1009.2
20260508034804 13 34 6.4 12.9 0.00 0.00 0.00 56 1009.2
20260508032306 15 50 9.7 22.5 0.00 0.00 0.00 46 1011.3
20260508030804 15 14 4.8 11.3 0.00 0.00 0.00 42 1011.3
20260508024804 16 134 1.6 3.2 0.00 0.00 0.00 40 1011.3
20260508023304 16 180 1.6 8.0 0.00 0.00 0.00 39 1011.3
20260508021804 16 144 1.6 3.2 0.00 0.00 0.00 38 1011.3
20260508021304 16 150 1.6 3.2 0.00 0.00 0.00 38 1011.3
20260508014304 16 257 6.4 11.3 0.00 0.00 0.00 40 1011.3
20260508013804 17 324 1.6 3.2 0.00 0.00 0.00 39 1011.3
20260508012804 17 35 6.4 19.3 0.00 0.00 0.00 38 1011.3
20260508012307 17 26 4.8 14.5 0.00 0.00 0.00 37 1011.3
20260508011804 17 5 8.0 20.9 0.00 0.00 0.00 35 1011.3
20260508010804 18 30 11.3 19.3 0.00 0.00 0.00 29 1011.3
20260508010304 18 33 11.3 20.9 0.00 0.00 0.00 28 1011.3
20260508005804 18 2 8.0 19.3 0.00 0.00 0.00 27 1011.3
20260508005306 19 14 8.0 20.9 0.00 0.00 0.00 28 1011.3
20260508002804 20 179 0.0 3.2 0.00 0.00 0.00 24 1011.3
20260507234304 21 51 6.4 9.7 0.00 0.00 0.00 24 1011.3
20260507232803 21 295 11.3 20.9 0.00 0.00 0.00 23 1011.3
20260507231304 22 287 6.4 12.9 0.00 0.00 0.00 22 1011.3
20260507230804 21 325 8.0 14.5 0.00 0.00 0.00 25 1011.3
20260507225306 21 263 14.5 24.1 0.00 0.00 0.00 22 1011.3
20260507224804 21 307 14.5 22.5 0.00 0.00 0.00 23 1011.3
20260507223804 22 308 11.3 22.5 0.00 0.00 0.00 25 1011.3
20260507223304 22 277 11.3 24.1 0.00 0.00 0.00 25 1011.3
20260507222306 21 265 11.3 20.9 0.00 0.00 0.00 24 1011.3
20260507221303 21 277 11.3 24.1 0.00 0.00 0.00 26 1011.3
20260507220803 21 247 17.7 32.2 0.00 0.00 0.00 24 1011.3
20260507215803 21 271 19.3 33.8 0.00 0.00 0.00 23 1011.3
20260507214803 21 262 14.5 29.0 0.00 0.00 0.00 24 1011.3
20260507214304 22 278 19.3 33.8 0.00 0.00 0.00 24 1011.3
20260507213804 22 285 14.5 29.0 0.00 0.00 0.00 23 1011.3